This demonstration page uses our WeatherBlox Daily Observations layout. Learn more.

Left ArrowRight Arrow

39.95238, -75.16362

Hourly Observations for May 2, 2018

Temp ( °F °C ) Dew Point ( °F °C ) Humidity (%) Winds ( mph kmh ) Pressure ( in mb ) Visibility ( mi km ) Precip ( " mm )
12:54 am 00:54 Mostly Cloudy 63 17.2 38 3.3 40 40 SW 9 15 30.11 1020 10 16 0.00 0.00
1:54 am 01:54 Partly Cloudy 63 17.2 37 2.8 38 38 SW 9 15 30.10 1019 10 16 0.00 0.00
2:54 am 02:54 Partly Cloudy 61 16.1 39 3.9 44 44 SW 8 13 30.10 1019 10 16 0.00 0.00
3:54 am 03:54 Partly Cloudy 61 16.1 40 4.4 46 46 SW 8 13 30.11 1020 10 16 0.00 0.00
4:54 am 04:54 Partly Cloudy 61 16.1 40 4.4 46 46 SW 8 13 30.11 1020 10 16 0.00 0.00
5:54 am 05:54 Mostly Clear 59 15 40 4.4 49 49 SW 6 9 30.12 1020 10 16 0.00 0.00
6:54 am 06:54 Sunny 57 13.9 43 6.1 60 60 SW 8 13 30.14 1021 10 16 0.00 0.00
7:54 am 07:54 Sunny 59 15 45 7.2 60 60 W 5 7 30.16 1021 10 16 0.00 0.00
8:54 am 08:54 Mostly Sunny 66 18.9 45 7.2 47 47 SW 6 9 30.15 1021 10 16 0.00 0.00
9:54 am 09:54 Mostly Sunny 71 21.7 46 7.8 41 41 WSW 7 11 30.15 1021 10 16 0.00 0.00
10:54 am 10:54 Mostly Sunny 78 25.6 44 6.7 30 30 SW 9 15 30.14 1021 10 16 0.00 0.00
11:54 am 11:54 Mostly Sunny 83 28.3 41 5 23 23 SSW 10 17 30.11 1020 10 16 0.00 0.00
12:54 pm 12:54 Partly Cloudy 85 29.4 40 4.4 20 20 WSW 16 26 30.09 1019 10 16 0.00 0.00
1:54 pm 13:54 Mostly Cloudy 87 30.6 41 5 20 20 WSW 15 24 30.08 1019 10 16 0.00 0.00
2:54 pm 14:54 Partly Cloudy 87 30.6 41 5 20 20 WSW 17 28 30.06 1018 10 16 0.00 0.00
3:54 pm 15:54 Partly Cloudy 88 31.1 41 5 19 19 SW 17 28 30.03 1017 10 16 0.00 0.00
4:54 pm 16:54 Partly Cloudy 87 30.6 43 6.1 21 21 SW 20 31 30.03 1017 10 16 0.00 0.00
5:54 pm 17:54 Mostly Cloudy 87 30.6 41 5 20 20 SW 18 30 30.01 1016 10 16 0.00 0.00
6:54 pm 18:54 Mostly Cloudy 84 28.9 44 6.7 25 25 SSW 13 20 30.02 1017 10 16 0.00 0.00
7:54 pm 19:54 Mostly Cloudy 81 27.2 43 6.1 26 26 SSW 8 13 30.02 1017 10 16 0.00 0.00
8:54 pm 20:54 Mostly Cloudy 77 25 43 6.1 30 30 SSW 8 13 30.03 1017 10 16 0.00 0.00
9:54 pm 21:54 Mostly Cloudy 75 23.9 43 6.1 32 32 WSW 8 13 30.03 1017 10 16 0.00 0.00
10:54 pm 22:54 Mostly Cloudy 72 22.2 44 6.7 37 37 WSW 7 11 30.03 1017 10 16 0.00 0.00
11:54 pm 23:54 Partly Cloudy 71 21.7 43 6.1 36 36 SW 6 9 30.03 1017 10 16 0.00 0.00

Powered by AerisWeather